sat.trackr.live / text

‹ back to catalog

STARLINK-11510 [DTC]

NORAD 62516 · 2025-004F

PAYLOAD ACTIVE UNKNOWN

§ Identity

Operator
Country
US
Launch date
2025-01-08
Launch site
AFETR
Launch vehicle
Mass (kg)
RCS (m²)

Purposes: comms

External: N2YO · Heavens-Above · Gunter

§ Orbital elements

Epoch: 2026-09-21T04:42:30.210336Z

Period
91.66 min
Inclination
43.0007°
Eccentricity
0.0002855
Mean motion
15.70953918 rev/d
Perigee alt
354.2 km
Apogee alt
358.1 km
Semi-major
6,734.3 km
B*
9.9045e-4
RAAN
332.5493°
Arg perigee
134.3123°
Mean anomaly
225.7979°
Rev number
9,795

§ Raw data

STARLINK-11510 [DTC]1 62516U 25004F   26264.19618299  .00129266  00000+0  99045-3 0  99912 62516  43.0007 332.5493 0002855 134.3123 225.7979 15.70953918 97951

JSON: /api/v1/satellites/62516 · /tle

For live sub-satellite position, see the globe view (requires WebGL).

§ Visibility from observer

Set your observer location to see the next 7 days of passes ≥ 10°. The values pass through the URL so the page stays shareable.

No JS? Fill the form by hand. The geolocation button needs JavaScript.